Retour au catalogue

STARLINK-33649

ActifCommunicationsVLEO
NORAD 63416·PAYLOAD·🇺🇸 United States

Lancé Mar 31, 2025 depuis Cape Canaveral Space Force Station

Loading…

Prochains Passages (prochaines 24 heures)

TLE

FraisSource: CelesTrak SupGP

Époque: Sep 14, 2026, 21:04 UTC

1 63416C 25065T   26257.87826389 -.00019167  00000+0 -69438-3 0  2576
2 63416  43.0016 118.4032 0001313 268.6678 175.2775 15.27580869    12

Suivez STARLINK-33649 en temps réel avec AllMySat

Download on the App Store